Flag for Syria Weather past 2 weeks in Damascus, Syria

Now
66 °F

Sunny.


Feels Like: 66 °F
Forecast: 57 / 78 °F
Wind: 10 mph from Northeast

Location: Damascus Int. Airport

Current Time: Mar 27, 2015 at 11:41:25 AM

Latest Report: Mar 27, 2015 at 11:00 AM


Visibility: 10 mi

Pressure: 30.18 "Hg

Humidity: 30%

Dew point: 34 °F

Location of DamascusLocation

Historic Weather in Damascus — Graph

°F

Damascus temperature yesterday

Maximum temperature yesterday: 72 °F (at 4:00 PM)
Minimum temperature yesterday: 45 °F (at 6:00 AM)
Average temperature yesterday: 57 °F

Past Weeks' High & Low Weather Summary

 TemperatureHumidityPressure
High73 °F (Mar 18, 4:00 PM)100% (Mar 17, 6:00 AM)30.18 "Hg (Mar 17, 6:00 AM)
Low30 °F (Mar 23, 6:00 AM)17% (Mar 25, 4:00 PM)29.80 "Hg (Mar 12, 9:00 AM)
Average53 °F55%30.04 "Hg
* Reported Mar 12 9:00 AM — Mar 27 10:00 AM, Damascus, Weather by CustomWeather, © 2015

Note: Actual official high and low records may vary slightly from our data, if they occured in-between our weather recording intervals... More about our weather records

Advertising

Damascus weather history for previous 24 hours

 ConditionsComfort  
Time TempWeatherWind HumidityBarometerVisibility
10:00 AM
Fri, Mar 27
63 °FSunny.14 mph34%30.18 "Hg10 mi
9:00 AM59 °FSunny.13 mph42%30.18 "Hg10 mi
8:00 AM52 °FSunny.10 mph50%30.15 "Hg10 mi
7:00 AM45 °FClear.7 mph66%30.15 "Hg10 mi
6:00 AM48 °FClear.9 mph54%30.15 "Hg10 mi
5:00 AM45 °FClear.5 mph61%30.15 "Hg10 mi
4:00 AM46 °FClear.7 mph57%30.15 "Hg10 mi
3:00 AM48 °FClear.2 mph54%30.15 "Hg10 mi
2:00 AM48 °FClear.5 mph54%30.18 "Hg10 mi
1:00 AM48 °FClear.7 mph50%30.18 "Hg10 mi
11:00 PM
Thu, Mar 26
50 °FClear.5 mph47%30.18 "Hg10 mi
10:00 PM54 °FClear.7 mph44%30.18 "Hg10 mi
9:00 PM54 °FClear.7 mph41%30.15 "Hg10 mi
8:00 PM59 °FClear.2 mph39%30.15 "Hg10 mi
7:00 PM61 °FClear.6 mph36%30.12 "Hg10 mi
6:00 PM66 °FClear.7 mph32%30.12 "Hg10 mi
5:00 PM70 °FSunny.7 mph27%30.09 "Hg10 mi
4:00 PM72 °FSunny.7 mph23%30.09 "Hg10 mi
3:00 PM70 °FSunny.12 mph27%30.12 "Hg10 mi
2:00 PM70 °FSunny.2 mph27%30.12 "Hg10 mi
1:00 PM66 °FSunny.2 mph32%30.15 "Hg10 mi
12:00 PM64 °FSunny.7 mph34%30.15 "Hg10 mi
11:00 AM63 °FSunny.9 mph34%30.18 "Hg10 mi
Weather by CustomWeather, © 2015

See weather overviewHow to use our weather pages